Вернуться в каталог

STARLINK-2492

АктивенСвязьVLEO
NORAD 48149·PAYLOAD·🇺🇸 United States

Запущен Apr 7, 2021 с Cape Canaveral Space Force Station

Loading…

Ближайшие Пролёты (ближайшие 24 часа)

TLE

СвежийSource: CelesTrak SupGP

Эпоха: Sep 15, 2026, 02:00 UTC

1 48149C 21027BK  26258.08381944  .00043154  00000+0  13873-2 0  2586
2 48149  53.1589 351.5504 0000904  94.3045 296.1833 15.31689452    17

Отслеживайте STARLINK-2492 в реальном времени с AllMySat

Download on the App Store